Regional Weather Roundup
Issued by NWS Midland/Odessa, TX

Home | Current Version | Previous Version | Text Only | Print | Product List | Glossary On
Versions: 1 2 3 4 5 6 7 8 9 10 11 12 13 14 15 16 17 18 19 20 21 22 23 24 25 26 27 28 29 30 31 32 33 34 35 36 37 38 39 40 41 42 43 44 45 46 47 48 49 50
000
ASUS44 KMAF 252210
RWRMAF
MIDLAND AREA WEATHER ROUNDUP
NATIONAL WEATHER SERVICE MIDLAND TX
400 PM CST SUN JAN 25 2015

...IN SOUTHWEST TEXAS AND SOUTHEAST NEW MEXICO...

CITY           SKY/WX    TMP DP  RH WIND       PRES   REMARKS
ALPINE         PTSUNNY   55  28  34 CALM      30.31R
ANDREWS        FAIR      59  26  28 NW5       30.24S
ARTESIA        SUNNY     57  28  33 S5G12     30.25S
BIG SPRING     SUNNY     64  26  23 N10       30.23S
CARLSBAD       SUNNY     60  22  23 SE8       30.23S
DRYDEN           N/A     67  26  21 VRB5      30.20R
FORT STOCKTON  SUNNY     59  26  28 VRB7      30.23F
GUAD PASS      NOT AVBL
HOBBS          SUNNY     57  25  28 CALM      30.25R
MARFA          CLOUDY    54  25  32 E6        30.28R
MIDLAND AIRPK  SUNNY     63  27  25 N6        30.23S
MIDLAND INTL   SUNNY     63  26  24 N8        30.23R
ODESSA         SUNNY     60  23  24 CALM      30.24S
PECOS          SUNNY     62  28  28 E7        30.23S
PRESIDIO       FAIR      61  29  29 CALM      30.21F
SEMINOLE       SUNNY     60  28  30 NE6       30.25S
SNYDER         SUNNY    N/A N/A N/A N9        30.21R
WINK           SUNNY     63  16  16 NE5       30.22S
$$
...OTHER STATIONS IN TEXAS...

CITY           SKY/WX    TMP DP  RH WIND       PRES   REMARKS
ABILENE        SUNNY     63  27  25 N20       30.17R
AMARILLO       SUNNY     52  34  50 NW12      30.19S
AUSTIN         PTSUNNY   69  33  26 N14       30.09S
BROWNSVILLE    PTSUNNY   69  49  48 W8        30.10S
CORPUS CHRISTI CLOUDY    69  44  40 NW13      30.08S
DALLAS FTW     MOSUNNY   62  24  23 N26G33    30.05R
DEL RIO        PTSUNNY   69  35  28 NW12      30.17R
EL PASO        MOSUNNY   61  24  24 E6        30.18F
HOUSTON INT    MOSUNNY   69  42  37 W10       30.02F
LUBBOCK        MOSUNNY   59  29  31 N13G21    30.20F
SAN ANGELO     SUNNY     66  29  24 N8        30.18F
SAN ANTONIO    PTSUNNY   73  31  21 N12       30.11R
WACO           SUNNY     67  24  19 N20G28    30.08R
WICHITA FALLS  NOT AVBL
$$
...OTHER LOCATIONS IN NEW MEXICO...

CITY           SKY/WX    TMP DP  RH WIND       PRES   REMARKS
ALAMAGORDO     SUNNY     57  23  26 S3        30.24S
ALBUQUERQUE    MOSUNNY   53  21  28 CALM      30.25F
CANNON AFB     SUNNY     48  29  47 CALM      30.23S
CLOVIS         SUNNY     48  30  49 NW3       30.24R
HOLLOMAN AFB   MOSUNNY   56  26  31 W3        30.23S
ROSWELL        SUNNY     57  28  33 SE12      30.23S
RUIDOSO        SUNNY     50  23  34 N7        30.27S
SANTA FE       SUNNY     52  18  26 W10       30.23S
TRUTH OR CONSE SUNNY     57  19  22 CALM      30.22S
TUCUMCARI      SUNNY     50  31  48 S7        30.21S
$$


USA.gov is the U.S. government's official web portal to all federal, state and local government web resources and services.